OBJECT YN, 69798

Orbit data source: Space-Track

You're viewing an uncataloged RSO

Recently launched and/or uncataloged RSOs may have evolving metadata. Metadata may include the following, but is not limited to: Owner, Manufacturer, Bus, Motor, and Mission.

OBJECT YN, 69798 is a satellite in LEO that was delivered to and deployed from the ISS. Unknown objects in Earth's orbit typically refer to objects detected orbiting the Earth but have not yet been identified or cataloged. These objects could be anything from previously untracked satellites, spent rocket stages, debris from satellite collisions, or even natural meteoroids temporarily captured by Earth's gravity.

Loading next visibility...
Identifier
69798, 1998-067YN
Orbit
LEO
Country
Flag of TBDTBD
Related business
Flag of USNortheastern University (US)
Manufacturer
NEU
Mission
Operational spacecraft
Bus & Motor
CUBESAT 1U, Unknown motor
Mass
1 kg wet, 1 kg dry
Launch date (UTC)
1998-11-20 (28 years ago)
Launch vehicle
FALCON 9
Launch site
Tyuratam Missile And Space Complex (TTMTR)
Object type
Unknown
Shape & HBR
BOX, 1.1 m
Radar Cross Section
Medium (>0.1 m² and <1 m²)

Expand to show TLE details & history
Last TLE update: 3 days ago

TLE from 3 days ago
0 OBJECT YN
1 69798U 98067YN  26251.36745206  .00034116  00000-0  53669-3 0  9995
2 69798  51.6293 247.2692 0009147 134.8685 225.3050 15.53235073 10568
Epoch: 2026-09-08T08:49Z
TLE epoch observation values (Epoch: 2026-09-08T08:49:07.857Z)
Latitude
-0°
Longitude
127.55158°
Altitude
412.397 km
Speed
7.662 km/s
True Right ascension
16h 29m 04s
True Declination
0° 00' 00"
Sunlit
Object was in daylight at epoch
Visualization orbit readout
Latitude
Unknown
Longitude
Unknown
Altitude
Unknown
Speed
Unknown
Apparent Right ascension
Unknown
Apparent Declination
Unknown
Sunlit
N/A
Visualization observer readout
Local Sidereal Time
03:54:15
Azimuth
Unknown
Elevation
Unknown
Doppler factor
Unknown
Orbital elements
Apogee altitude
414.005 km
Perigee altitude
401.591 km
Semi-major axis
6,785.935 km
Eccentricity
0.00091
Inclination
51.6293°
RAAN
247.2692°
Arg. of periapsis
134.8685°
True anomaly
225.23055°
Mean anomaly
225.305°
Eccentric anomaly
225.26777°
Mean motion
3.88265 °/min
Orbital period
92.72 mins
BSTAR
0.00053669
Loading maneuver chart data...
Computing Atmospheric mass density...

Documentation

Showing up to 5 results
|